Cloud_Cover
0 5 12 38 42 40 6 0 32 16 100 94 7 84 3 5 2 1 0 5 58 75 19 76 97 100 100 100 100 100 100 83 77 100 76 89 99 10 48 5 5 16 10
0 0 1 0 12 51 27 11 0 4 82 100 22 56 6 3 2 5 2 85 7 42 75 36 100 100 83 19 49 9 85 45 42 0 7 93 27 60 16 94 22 89 28
9 1 0 0 0 16 25 25 34 24 1 100 12 2 5 0 6 89 3 26 6 5 6 5 42 93 80 29 7 31 7 23 71 41 34 5 40 55 33 47 17 13 50
28 62 10 9 6 4 6 16 26 34 7 100 44 54 3 1 8 100 88 74 5 7 1 5 4 45 40 4 21 100 20 16 30 82 31 6 30 14 57 98 56 80 93
97 58 64 71 48 71 82 49 42 0 2 52 45 19 48 7 8 97 100 83 5 5 13 20 25 98 44 88 94 100 20 3 74 19 88 52 94 37 70 32 51 57 86
34 12 41 78 40 31 99 57 54 0 3 25 5 43 50 1 47 2 99 100 76 5 5 5 98 100 100 100 100 100 6 14 75 79 100 46 4 26 64 31 5 24 90
58 60 45 23 47 29 48 91 90 77 81 25 45 38 76 77 69 84 61 88 100 70 6 43 100 100 100 100 100 100 97 64 86 23 46 25 29 47 49 8 20 4 4
46 72 100 56 65 48 29 95 80 98 81 88 100 96 98 100 100 100 100 100 76 100 100 96 100 100 100 100 100 100 100 100 100 85 77 84 33 71 100 32 12 57 12
87 93 97 98 36 100 82 68 100 100 98 100 91 100 100 100 100 100 100 100 85 67 100 100 100 100 100 100 100 100 100 100 100 100 100 100 100 98 85 79 99 100 100
83 92 85 86 99 95 100 99 88 100 32 100 93 49 96 100 100 100 100 95 92 41 98 100 100 100 100 100 100 100 100 100 100 100 100 100 100 100 100 100 100 100 100
100 90 88 100 52 44 74 99 92 47 76 52 96 60 88 50 96 100 100 17 39 100 100 100 100 100 100 100 100 100 100 100 100 100 100 100 100 100 100 100 100 100 100
100 100 100 100 100 100 85 50 99 99 95 82 72 83 100 100 86 91 100 93 98 100 100 100 100 100 100 100 98 100 100 100 100 100 100 100 100 98 82 99 100 100 100
100 100 100 100 100 100 98 100 66 100 100 100 100 100 100 100 90 99 100 100 99 100 99 93 100 100 100 100 100 100 100 100 100 100 100 100 100 100 100 100 100 100 100
100 100 100 100 100 100 100 100 100 100 100 99 98 100 93 67 77 81 78 100 96 99 93 100 100 91 100 100 100 100 100 100 100 100 100 100 100 100 100 100 100 100 100
100 100 100 100 100 100 100 100 100 100 100 100 100 100 98 100 51 79 99 61 88 100 100 99 100 100 100 100 80 100 100 100 100 100 100 100 100 100 100 100 100 100 100
100 100 100 100 100 100 100 100 100 99 100 100 100 79 94 76 100 100 100 100 100 100 91 96 100 100 100 100 100 98 100 100 100 100 100 100 100 100 100 100 100 100 100
100 100 100 100 100 100 100 100 100 100 100 100 100 100 100 100 100 100 100 96 100 100 99 100 84 100 100 100 100 100 100 100 100 100 100 100 100 100 100 99 86 100 100
85 100 100 100 100 100 100 100 100 100 100 100 100 100 100 100 100 100 100 100 100 100 22 14 98 57 100 100 100 100 100 100 100 100 97 100 97 93 86 56 53 94 100
100 100 100 99 100 100 100 100 100 100 100 100 100 100 100 100 100 100 100 60 63 80 100 100 97 100 100 100 100 100 100 100 100 100 99 72 98 62 82 59 71 86 92
100 100 95 87 100 100 100 100 100 100 100 100 100 100 88 100 100 100 100 100 100 100 100 100 100 100 100 100 100 100 100 100 100 100 99 89 90 63 72 69 60 87 82
100 100 66 71 95 99 100 100 100 100 100 100 100 100 100 100 100 100 100 100 100 100 100 100 100 100 100 100 100 100 100 100 100 100 100 100 100 95 100 67 76 99 97
100 100 100 33 100 45 52 100 100 100 100 100 100 100 100 100 100 100 100 100 100 100 100 100 100 100 100 99 85 100 87 99 100 84 82 50 100 88 56 60 100 94 35
100 100 100 100 70 62 4 21 29 80 100 100 100 100 100 100 100 100 100 100 100 100 100 100 100 100 100 100 100 52 100 100 97 49 10 46 43 37 87 93 100 100 100
100 86 99 100 78 69 99 34 5 38 68 83 100 96 100 100 100 83 100 100 100 100 100 99 69 86 99 86 100 47 79 19 6 8 14 5 24 76 82 100 100 100 100
100 86 26 99 100 95 99 98 92 91 59 53 88 98 100 100 100 100 99 72 98 100 100 83 100 100 97 18 21 100 98 0 1 65 2 0 2 2 9 100 100 100 99
100 63 92 100 100 100 100 62 59 43 58 89 96 62 100 100 100 100 100 100 100 100 100 96 50 42 70 100 94 94 2 0 0 38 9 0 0 1 13 65 94 100 100